TimeAKDT,TemperatureF,Dew PointF,Humidity,Sea Level PressureIn,VisibilityMPH,Wind Direction,Wind SpeedMPH,Gust SpeedMPH,PrecipitationIn,Events,Conditions,WindDirDegrees,DateUTC
12:53 AM,35.1,12.0,39,30.22,10.0,NE,9.2,-,N/A,,Partly Cloudy,40,2012-10-11 08:53:00
1:53 AM,35.1,10.9,37,30.20,10.0,NE,13.8,-,N/A,,Partly Cloudy,40,2012-10-11 09:53:00
2:53 AM,35.1,9.0,34,30.19,10.0,NNE,11.5,-,N/A,,Partly Cloudy,20,2012-10-11 10:53:00
3:53 AM,35.1,9.0,34,30.18,10.0,North,6.9,-,N/A,,Clear,10,2012-10-11 11:53:00
4:53 AM,32.0,9.0,38,30.17,10.0,NW,5.8,-,N/A,,Partly Cloudy,310,2012-10-11 12:53:00
5:53 AM,32.0,8.1,37,30.16,10.0,North,8.1,-,N/A,,Partly Cloudy,350,2012-10-11 13:53:00
6:53 AM,30.0,9.0,41,30.14,10.0,NNW,9.2,-,N/A,,Partly Cloudy,330,2012-10-11 14:53:00
7:53 AM,32.0,8.1,37,30.13,10.0,NNW,3.5,-,N/A,,Partly Cloudy,330,2012-10-11 15:53:00
8:53 AM,30.9,10.0,42,30.12,10.0,Calm,Calm,-,N/A,,Partly Cloudy,0,2012-10-11 16:53:00
9:53 AM,32.0,8.1,37,30.11,10.0,East,4.6,-,N/A,,Partly Cloudy,80,2012-10-11 17:53:00
10:53 AM,33.1,12.0,42,30.10,10.0,Calm,Calm,-,N/A,,Partly Cloudy,0,2012-10-11 18:53:00
11:53 AM,37.4,10.4,33,30.09,10.0,West,4.6,-,N/A,,Partly Cloudy,270,2012-10-11 19:53:00
12:53 PM,44.1,3.9,19,30.08,10.0,Variable,6.9,-,N/A,,Partly Cloudy,0,2012-10-11 20:53:00
1:53 PM,44.1,10.9,26,30.07,10.0,NNE,6.9,-,N/A,,Clear,30,2012-10-11 21:53:00
2:53 PM,44.1,12.9,28,30.05,10.0,NE,11.5,-,N/A,,Clear,40,2012-10-11 22:53:00
3:53 PM,44.1,12.9,28,30.02,10.0,NE,13.8,-,N/A,,Clear,40,2012-10-11 23:53:00
4:53 PM,45.0,10.0,24,30.00,10.0,North,15.0,-,N/A,,Clear,10,2012-10-12 00:53:00
5:53 PM,45.0,10.0,24,29.99,10.0,NNE,12.7,-,N/A,,Clear,30,2012-10-12 01:53:00
6:53 PM,43.0,9.0,25,29.98,10.0,NNW,5.8,-,N/A,,Clear,340,2012-10-12 02:53:00
7:53 PM,37.0,12.9,37,29.96,10.0,North,8.1,-,N/A,,Clear,360,2012-10-12 03:53:00
8:53 PM,36.0,12.0,37,29.95,10.0,Variable,3.5,-,N/A,,Partly Cloudy,0,2012-10-12 04:53:00
9:53 PM,36.0,10.9,36,29.94,10.0,Variable,3.5,-,N/A,,Clear,0,2012-10-12 05:53:00
10:53 PM,33.1,12.9,43,29.92,10.0,NW,6.9,-,N/A,,Clear,320,2012-10-12 06:53:00
11:53 PM,34.0,14.0,44,29.92,10.0,NNE,5.8,-,N/A,,Clear,30,2012-10-12 07:53:00